Location: Bonn
(50.7330°N, 7.1000°E)
Time: 11:19:27
(UTC+01:00)

Cosmos 1933 Rocket - Visible Passes

Search period start: 21 January 2018 00:00
Search period end: 31 January 2018 00:00
Orbit: 606 x 631 km, 82.5° (Epoch: 20 January)

Date Brightness Start Highest point End Pass type
(mag) Time Alt. Az. Time Alt. Az. Time Alt. Az.
21 Jan 5.4 07:26:02 10° N 07:29:54 30° ENE 07:33:45 10° SE visible
23 Jan 6.5 06:24:05 10° NE 06:25:57 12° ENE 06:27:48 10° E visible
24 Jan 6.1 06:40:18 10° NNE 06:43:31 20° ENE 06:46:42 10° ESE visible
25 Jan 5.4 06:57:03 10° N 07:00:57 31° ENE 07:04:51 10° SE visible
26 Jan 4.4 07:14:03 10° N 07:18:19 53° ENE 07:22:34 10° SSE visible
27 Jan 6.5 05:55:01 10° NNE 05:57:01 13° ENE 05:59:01 10° E visible
27 Jan 3.6 07:31:12 10° N 07:35:34 88° W 07:39:55 10° S visible
28 Jan 6.1 06:11:18 10° NNE 06:14:34 20° ENE 06:17:50 10° ESE visible
29 Jan 5.3 06:28:04 10° N 06:32:01 32° ENE 06:35:57 10° SE visible
30 Jan 4.3 06:45:05 10° N 06:49:22 55° ENE 06:53:38 10° SSE visible
